Russell, KS

1:04 AM CDT on September 27, 2016 (GMT -0500)
Russell Municipal

Weather History for KRSL - November, 2011

Change the Weather History Date:

Wednesday, November 2, 2011

  Actual Average Record
Temperature  
Mean Temperature 40 °F -  
Max Temperature 48 °F 55 °F 81 °F (1964)
Min Temperature 32 °F 35 °F 5 °F (1991)
Degree Days  
Heating Degree Days 25    
Moisture  
Dew Point 34 °F    
Average Humidity 87    
Maximum Humidity 100    
Minimum Humidity 56    
Precipitation  
Precipitation 0.00 in - - ()
Sea Level Pressure  
Sea Level Pressure 30.17 in    
Wind  
Wind Speed 28 mph (North)    
Max Wind Speed 38 mph    
Max Gust Speed 52 mph    
Visibility 6 miles    
Events Rain , Snow    
Averages and records for this station are not official NWS values.
T = Trace of Precipitation, MM = Missing Value Source: NWS Daily Summary

Daily Weather History Graph

Daily Weather History Graph

Search for Another Location

Airport or City:

Trip Planner

Search our weather history database for the weather conditions in past years. The results will help you decide how hot, cold, wet, or windy it might be!

Date:

Astronomy

Nov. 02, 2011 Rise Set
Actual Time 8:03 AM CDT 6:33 PM CDT
Civil Twilight 7:35 AM CDT 7:01 PM CDT
Nautical Twilight 7:04 AM CDT 7:32 PM CDT
Astronomical Twilight 6:32 AM CDT 8:04 PM CDT
Moon 2:23 PM CDT (11/2) 12:19 AM CDT (11/2)
Length of Visible Light 11h 25m
Length of Day
10h 30m
Waxing Crescent, 50% of the Moon is Illuminated
Nov 2
Waxing Crescent
Nov 10
Full
Nov 18
Last Quarter
Nov 25
New
Dec 2
First Quarter

Hourly Weather History & Observations

Time (CDT) Temp. Windchill Dew Point Humidity Pressure Visibility Wind Dir Wind Speed Gust Speed Precip Events Conditions
12:53 AM 46.9 °F - 37.0 °F 68% 29.91 in 10.0 mi North 20.7 mph - N/A   Scattered Clouds
1:53 AM 48.0 °F - 36.0 °F 63% 29.91 in 10.0 mi North 24.2 mph 29.9 mph N/A   Overcast
2:53 AM 48.0 °F - 35.1 °F 61% 29.92 in 10.0 mi North 25.3 mph 32.2 mph N/A   Overcast
3:53 AM 46.9 °F - 34.0 °F 61% 29.95 in 10.0 mi North 29.9 mph 36.8 mph N/A   Overcast
4:53 AM 46.0 °F 36.2 °F 33.1 °F 61% 29.95 in 10.0 mi North 33.4 mph 44.9 mph N/A   Overcast
5:53 AM 46.0 °F 36.1 °F 30.9 °F 56% 29.98 in 10.0 mi North 34.5 mph 43.7 mph N/A   Overcast
6:53 AM 44.1 °F 34.2 °F 32.0 °F 63% 29.98 in 10.0 mi NNE 28.8 mph 51.8 mph N/A   Overcast
7:53 AM 43.0 °F 33.1 °F 33.1 °F 68% 30.04 in 10.0 mi North 26.5 mph 51.8 mph 0.00 in   Overcast
8:53 AM 41.0 °F 29.8 °F 35.1 °F 79% 30.06 in 10.0 mi NNE 29.9 mph 42.6 mph 0.00 in   Overcast
9:53 AM 39.0 °F 27.2 °F 36.0 °F 89% 30.12 in 4.0 mi North 29.9 mph 38.0 mph 0.00 in Rain Light Rain
10:06 AM 39.2 °F 27.2 °F 35.6 °F 87% 30.10 in 2.5 mi North 31.1 mph 40.3 mph N/A   Overcast
10:22 AM 37.4 °F 24.8 °F 35.6 °F 93% 30.11 in 1.5 mi North 31.1 mph 38.0 mph 0.00 in Snow Light Snow
10:46 AM 37.4 °F 25.2 °F 35.6 °F 93% 30.12 in 1.2 mi North 28.8 mph 38.0 mph 0.00 in Snow Light Snow
10:53 AM 37.9 °F 26.1 °F 36.0 °F 93% 30.15 in 1.2 mi North 27.6 mph 39.1 mph 0.00 in Snow Light Snow
11:21 AM 37.4 °F 25.0 °F 35.6 °F 93% 30.11 in 2.5 mi North 29.9 mph 41.4 mph 0.00 in Snow Light Snow
11:40 AM 35.6 °F 22.1 °F 35.6 °F 100% 30.12 in 3.0 mi North 32.2 mph 43.7 mph 0.00 in   Overcast
11:53 AM 36.0 °F 23.2 °F 35.1 °F 97% 30.16 in 4.0 mi North 28.8 mph 40.3 mph 0.00 in   Overcast
12:15 PM 35.6 °F 22.1 °F 35.6 °F 100% 30.13 in 2.0 mi North 32.2 mph 42.6 mph 0.00 in Snow Light Snow
12:53 PM 35.1 °F 21.8 °F 34.0 °F 96% 30.18 in 2.0 mi North 29.9 mph 39.1 mph 0.00 in Snow Light Snow
1:43 PM 35.6 °F 22.7 °F 33.8 °F 93% 30.14 in 3.0 mi North 28.8 mph 42.6 mph 0.00 in Snow Light Snow
1:53 PM 36.0 °F 21.8 °F 34.0 °F 93% 30.17 in 3.0 mi North 36.8 mph 46.0 mph 0.00 in Snow Light Snow
2:24 PM 35.6 °F 21.3 °F 33.8 °F 93% 30.15 in 6.0 mi North 36.8 mph 46.0 mph 0.00 in Snow Light Snow
2:53 PM 37.0 °F 23.3 °F 35.1 °F 93% 30.19 in 7.0 mi North 36.8 mph 44.9 mph 0.00 in Snow Light Snow
3:45 PM 37.4 °F 24.6 °F 35.6 °F 93% 30.20 in 6.0 mi North 32.2 mph 40.3 mph 0.00 in Snow Light Snow
3:53 PM 37.0 °F 23.9 °F 35.1 °F 93% 30.22 in 6.0 mi North 33.4 mph 43.7 mph 0.00 in Snow Light Snow
4:13 PM 37.4 °F 24.6 °F 33.8 °F 87% 30.20 in 5.0 mi North 32.2 mph 44.9 mph 0.00 in Snow Light Snow
4:20 PM 35.6 °F 22.1 °F 33.8 °F 93% 30.21 in 4.0 mi NNW 32.2 mph 44.9 mph 0.00 in Snow Light Snow
4:53 PM 35.6 °F 21.3 °F 33.8 °F 93% 30.23 in 4.0 mi NNW 36.8 mph 46.0 mph N/A Snow Light Snow
5:50 PM 35.6 °F 21.1 °F 33.8 °F 93% 30.27 in 6.0 mi NNW 38.0 mph 46.0 mph 0.00 in Snow Light Snow
5:53 PM 35.1 °F 21.6 °F 33.1 °F 92% 30.31 in 5.0 mi NNW 31.1 mph 46.0 mph 0.00 in Snow Light Snow
6:20 PM 33.8 °F 19.9 °F 33.8 °F 100% 30.29 in 4.0 mi NNW 31.1 mph 43.7 mph 0.00 in Snow Light Snow
6:49 PM 33.8 °F 19.4 °F 32.0 °F 93% 30.30 in 2.5 mi NNW 33.4 mph 41.4 mph 0.00 in Snow Light Snow
6:53 PM 33.1 °F 18.0 °F 32.0 °F 96% 30.35 in 3.0 mi NNW 35.7 mph 42.6 mph 0.00 in Snow Light Snow
7:12 PM 33.8 °F 19.4 °F 32.0 °F 93% 30.32 in 2.5 mi NNW 33.4 mph 41.4 mph 0.00 in Snow Light Snow
7:27 PM 33.8 °F 19.6 °F 32.0 °F 93% 30.32 in 1.8 mi NNW 32.2 mph 40.3 mph 0.00 in Snow Light Snow
7:37 PM 33.8 °F 20.8 °F 32.0 °F 93% 30.32 in 3.0 mi North 26.5 mph 39.1 mph 0.00 in Snow Light Snow
7:53 PM 34.0 °F 21.3 °F 32.0 °F 92% 30.36 in 9.0 mi North 25.3 mph - 0.00 in   Overcast
8:53 PM 34.0 °F 24.6 °F 32.0 °F 92% 30.36 in 10.0 mi NNW 13.8 mph - N/A   Overcast
9:53 PM 32.0 °F 24.2 °F 30.9 °F 96% 30.37 in 10.0 mi WNW 9.2 mph - N/A   Mostly Cloudy
10:53 PM 34.0 °F 24.2 °F 30.0 °F 85% 30.38 in 10.0 mi NW 15.0 mph - N/A   Clear
11:53 PM 33.1 °F 21.5 °F 28.0 °F 82% 30.39 in 10.0 mi NW 19.6 mph - N/A   Clear